Miscellaneous Local Product
Issued by NWS Hastings, NE

Home | Current Version | Previous Version | Graphics & Text | Print | Product List | Glossary On
Versions: 1 2 3 4 5 6 7 8 9 10 11 12 13 14 15 16 17 18 19 20 21 22 23 24 25 26 27 28 29 30 31 32 33 34 35 36 37 38 39 40 41 42 43 44 45 46 47 48 49 50
000
AXUS43 KGID 011902
MISGRI

GID CWA HOURLY WEATHER ROUNDUP
NATIONAL WEATHER SERVICE HASTINGS NE
200 PM CDT FRI AUG 01 2014

NOTE: "FAIR" INDICATES FEW OR NO CLOUDS BELOW 12,000 FEET WITH NO
SIGNIFICANT WEATHER AND/OR OBSTRUCTIONS TO VISIBILITY.

...SOUTH CENTRAL NEBRASKA...

CITY           SKY/WX    TMP DP  RH WIND       PRES   REMARKS
GRAND ISLAND   SUNNY     82  60  47 NE8       30.13S
HASTINGS       SUNNY     82  56  40 NE13      30.13R
KEARNEY        SUNNY     82  57  42 N9        30.14R
ORD            SUNNY     83  58  42 E7        30.12S
YORK           SUNNY     79  63  57 N9G17     30.11F
AURORA         SUNNY     81  61  49 NE9       30.12S
LEXINGTON      SUNNY     85  58  39 CALM      30.14S
HOLDREGE       SUNNY     82  57  42 N7        30.14S
HEBRON         SUNNY     82  58  43 N10G17    30.09R

...NEBRASKA PANHANDLE...

CITY           SKY/WX    TMP DP  RH WIND       PRES   REMARKS
CHADRON        SUNNY     91  39  16 SE5       30.11F
ALLIANCE       SUNNY     88  37  16 E6        30.18F
SCOTTSBLUFF    SUNNY     87  45  23 VRB3      30.19F
SIDNEY         SUNNY     87  38  17 VRB5      30.22F

...WESTERN AND NORTH CENTRAL NEBRASKA...

CITY           SKY/WX    TMP DP  RH WIND       PRES   REMARKS
VALENTINE      SUNNY     89  50  26 CALM      30.11F
AINSWORTH      SUNNY     84  54  34 E9        30.13F
ONEILL         MOSUNNY   82  56  39 E5        30.14S
BROKEN BOW     SUNNY     85  59  41 VRB5      30.14S
IMPERIAL       SUNNY     88  42  20 N7        30.16F
NORTH PLATTE   SUNNY     87  51  28 SW6       30.13F
MCCOOK         SUNNY     88  51  28 VRB7      30.14S

...EASTERN NEBRASKA...

CITY           SKY/WX    TMP DP  RH WIND       PRES   REMARKS
NORFOLK        SUNNY     81  58  45 E8        30.12S
SO SIOUX CITY  MOSUNNY   82  61  48 CALM      30.11S
TEKAMAH        MOSUNNY   83  59  44 VRB5      30.10S
ALBION         SUNNY     80  54  40 N3        30.13S
OMAHA EPPLEY   MOSUNNY   83  61  47 E9        30.09F
OFFUTT AFB     MOSUNNY   80  64  57 NE6       30.09S
MILLARD        PTSUNNY   80  62  54 SE7       30.09S
LINCOLN        CLOUDY    80  61  52 E7        30.09S
NEBRASKA CITY  MOSUNNY   82  61  49 E9        30.09S
BEATRICE       CLOUDY    81  64  57 E7        30.07S
FALLS CITY     CLOUDY    81  65  58 E10       30.07R HAZE

...NORTHERN KANSAS...

CITY           SKY/WX    TMP DP  RH WIND       PRES   REMARKS
GOODLAND       MOSUNNY   83  47  28 W5        30.19F
HILL CITY      SUNNY     91  52  26 NE10      30.11F
NORTON         CLEAR     88  45  22 CALM      30.12S
PHILLIPSBURG   SUNNY     88  52  29 NW7       30.10F
SMITH CENTER   SUNNY     88  55  33 N10G16    30.10F
HAYS           SUNNY     88  54  31 NE12G17   30.10F
RUSSELL        SUNNY     89  52  28 VRB5      30.08S
CONCORDIA      SUNNY     85  55  35 N15G23    30.07S
SALINA         MOSUNNY   93  52  24 N17       30.05S HX  90
TOPEKA         CLOUDY    85  59  41 VRB5G17   30.05R



USA.gov is the U.S. government's official web portal to all federal, state and local government web resources and services.